#datetime,building,power
2023-06-05T00:00:00,rvs,9.50
2023-06-05T00:01:00,rvs,9.55
2023-06-05T00:02:00,rvs,9.54
2023-06-05T00:03:00,rvs,9.53
2023-06-05T00:04:00,rvs,9.52
2023-06-05T00:05:00,rvs,9.53
2023-06-05T00:06:00,rvs,9.53
2023-06-05T00:07:00,rvs,9.79
2023-06-05T00:08:00,rvs,9.86
2023-06-05T00:09:00,rvs,9.58
2023-06-05T00:10:00,rvs,9.41
2023-06-05T00:11:00,rvs,9.44
2023-06-05T00:12:00,rvs,9.42
2023-06-05T00:13:00,rvs,4.36
2023-06-05T00:14:00,rvs,4.46
2023-06-05T00:15:00,rvs,4.37
2023-06-05T00:16:00,rvs,4.39
2023-06-05T00:17:00,rvs,4.83
2023-06-05T00:18:00,rvs,4.79
2023-06-05T00:19:00,rvs,4.80
2023-06-05T00:20:00,rvs,4.78
2023-06-05T00:21:00,rvs,4.80
2023-06-05T00:22:00,rvs,4.82
2023-06-05T00:23:00,rvs,4.87
2023-06-05T00:24:00,rvs,5.04
2023-06-05T00:25:00,rvs,4.92
2023-06-05T00:26:00,rvs,4.88
2023-06-05T00:27:00,rvs,4.92
2023-06-05T00:28:00,rvs,4.91
2023-06-05T00:29:00,rvs,4.92
2023-06-05T00:30:00,rvs,4.99
2023-06-05T00:31:00,rvs,8.99
2023-06-05T00:32:00,rvs,10.45
2023-06-05T00:33:00,rvs,11.57
2023-06-05T00:34:00,rvs,11.20
2023-06-05T00:35:00,rvs,10.41
2023-06-05T00:36:00,rvs,9.64
2023-06-05T00:37:00,rvs,9.25
2023-06-05T00:38:00,rvs,9.38
2023-06-05T00:39:00,rvs,9.83
2023-06-05T00:40:00,rvs,10.29
2023-06-05T00:41:00,rvs,4.77
2023-06-05T00:42:00,rvs,4.67
2023-06-05T00:43:00,rvs,4.65
2023-06-05T00:44:00,rvs,17.93
2023-06-05T00:45:00,rvs,17.57
2023-06-05T00:46:00,rvs,17.38
2023-06-05T00:47:00,rvs,17.29
2023-06-05T00:48:00,rvs,5.17
2023-06-05T00:49:00,rvs,5.12
2023-06-05T00:50:00,rvs,4.63
2023-06-05T00:51:00,rvs,4.55
2023-06-05T00:52:00,rvs,4.56
2023-06-05T00:53:00,rvs,4.66
2023-06-05T00:54:00,rvs,4.61
2023-06-05T00:55:00,rvs,4.62
2023-06-05T00:56:00,rvs,4.57
2023-06-05T00:57:00,rvs,4.44
2023-06-05T00:58:00,rvs,4.46
2023-06-05T00:59:00,rvs,4.44
2023-06-05T01:00:00,rvs,4.44
2023-06-05T01:01:00,rvs,4.49
2023-06-05T01:02:00,rvs,4.46
2023-06-05T01:03:00,rvs,4.95
2023-06-05T01:04:00,rvs,4.99
2023-06-05T01:05:00,rvs,4.98
2023-06-05T01:06:00,rvs,8.81
2023-06-05T01:07:00,rvs,9.79
2023-06-05T01:08:00,rvs,11.28
2023-06-05T01:09:00,rvs,11.52
2023-06-05T01:10:00,rvs,10.74
2023-06-05T01:11:00,rvs,10.23
2023-06-05T01:12:00,rvs,9.64
2023-06-05T01:13:00,rvs,9.15
2023-06-05T01:14:00,rvs,9.45
2023-06-05T01:15:00,rvs,10.68
2023-06-05T01:16:00,rvs,9.54
2023-06-05T01:17:00,rvs,9.86
2023-06-05T01:18:00,rvs,9.86
2023-06-05T01:19:00,rvs,10.05
2023-06-05T01:20:00,rvs,9.49
2023-06-05T01:21:00,rvs,9.54
2023-06-05T01:22:00,rvs,9.50
2023-06-05T01:23:00,rvs,9.47
2023-06-05T01:24:00,rvs,9.38
2023-06-05T01:25:00,rvs,9.39
2023-06-05T01:26:00,rvs,9.42
2023-06-05T01:27:00,rvs,9.43
2023-06-05T01:28:00,rvs,9.37
2023-06-05T01:29:00,rvs,9.43
2023-06-05T01:30:00,rvs,13.46
2023-06-05T01:31:00,rvs,15.09
2023-06-05T01:32:00,rvs,15.82
2023-06-05T01:33:00,rvs,15.71
2023-06-05T01:34:00,rvs,14.82
2023-06-05T01:35:00,rvs,14.18
2023-06-05T01:36:00,rvs,13.87
2023-06-05T01:37:00,rvs,14.18
2023-06-05T01:38:00,rvs,15.16
2023-06-05T01:39:00,rvs,9.09
2023-06-05T01:40:00,rvs,9.19
2023-06-05T01:41:00,rvs,9.21
2023-06-05T01:42:00,rvs,9.24
2023-06-05T01:43:00,rvs,9.22
2023-06-05T01:44:00,rvs,9.29
2023-06-05T01:45:00,rvs,9.24
2023-06-05T01:46:00,rvs,9.21
2023-06-05T01:47:00,rvs,9.22
2023-06-05T01:48:00,rvs,9.14
2023-06-05T01:49:00,rvs,9.16
2023-06-05T01:50:00,rvs,9.12
2023-06-05T01:51:00,rvs,9.18
2023-06-05T01:52:00,rvs,12.58
2023-06-05T01:53:00,rvs,13.96
2023-06-05T01:54:00,rvs,15.12
2023-06-05T01:55:00,rvs,15.72
2023-06-05T01:56:00,rvs,15.24
2023-06-05T01:57:00,rvs,14.36
2023-06-05T01:58:00,rvs,13.76
2023-06-05T01:59:00,rvs,13.32
2023-06-05T02:00:00,rvs,13.36
2023-06-05T02:01:00,rvs,13.68
2023-06-05T02:02:00,rvs,13.85
2023-06-05T02:03:00,rvs,8.92
2023-06-05T02:04:00,rvs,8.94
2023-06-05T02:05:00,rvs,8.95
2023-06-05T02:06:00,rvs,8.96
2023-06-05T02:07:00,rvs,8.92
2023-06-05T02:08:00,rvs,8.97
2023-06-05T02:09:00,rvs,12.29
2023-06-05T02:10:00,rvs,13.86
2023-06-05T02:11:00,rvs,15.55
2023-06-05T02:12:00,rvs,15.00
2023-06-05T02:13:00,rvs,14.71
2023-06-05T02:14:00,rvs,14.07
2023-06-05T02:15:00,rvs,13.88
2023-06-05T02:16:00,rvs,13.21
2023-06-05T02:17:00,rvs,13.04
2023-06-05T02:18:00,rvs,13.25
2023-06-05T02:19:00,rvs,22.37
2023-06-05T02:20:00,rvs,22.98
2023-06-05T02:21:00,rvs,23.54
2023-06-05T02:22:00,rvs,23.97
2023-06-05T02:23:00,rvs,13.01
2023-06-05T02:24:00,rvs,13.12
2023-06-05T02:25:00,rvs,14.65
2023-06-05T02:26:00,rvs,15.94
2023-06-05T02:27:00,rvs,17.37
2023-06-05T02:28:00,rvs,16.58
2023-06-05T02:29:00,rvs,16.01
2023-06-05T02:30:00,rvs,15.22
2023-06-05T02:31:00,rvs,15.59
2023-06-05T02:32:00,rvs,16.03
2023-06-05T02:33:00,rvs,11.19
2023-06-05T02:34:00,rvs,5.00
2023-06-05T02:35:00,rvs,4.99
2023-06-05T02:36:00,rvs,4.91
2023-06-05T02:37:00,rvs,4.94
2023-06-05T02:38:00,rvs,4.99
2023-06-05T02:39:00,rvs,5.08
2023-06-05T02:40:00,rvs,4.67
2023-06-05T02:41:00,rvs,4.68
2023-06-05T02:42:00,rvs,4.85
2023-06-05T02:43:00,rvs,4.80
2023-06-05T02:44:00,rvs,4.74
2023-06-05T02:45:00,rvs,4.73
2023-06-05T02:46:00,rvs,4.64
2023-06-05T02:47:00,rvs,4.63
2023-06-05T02:48:00,rvs,7.96
2023-06-05T02:49:00,rvs,9.30
2023-06-05T02:50:00,rvs,10.89
2023-06-05T02:51:00,rvs,10.33
2023-06-05T02:52:00,rvs,8.19
2023-06-05T02:53:00,rvs,9.89
2023-06-05T02:54:00,rvs,11.13
2023-06-05T02:55:00,rvs,10.93
2023-06-05T02:56:00,rvs,10.62
2023-06-05T02:57:00,rvs,10.00
2023-06-05T02:58:00,rvs,10.11
2023-06-05T02:59:00,rvs,9.95
2023-06-05T03:00:00,rvs,4.42
2023-06-05T03:01:00,rvs,4.37
2023-06-05T03:02:00,rvs,4.39
2023-06-05T03:03:00,rvs,4.34
2023-06-05T03:04:00,rvs,4.35
2023-06-05T03:05:00,rvs,4.34
2023-06-05T03:06:00,rvs,4.44
2023-06-05T03:07:00,rvs,4.43
2023-06-05T03:08:00,rvs,4.44
2023-06-05T03:09:00,rvs,4.41
2023-06-05T03:10:00,rvs,4.37
2023-06-05T03:11:00,rvs,4.38
2023-06-05T03:12:00,rvs,4.87
2023-06-05T03:13:00,rvs,4.98
2023-06-05T03:14:00,rvs,4.94
2023-06-05T03:15:00,rvs,4.92
2023-06-05T03:16:00,rvs,8.06
2023-06-05T03:17:00,rvs,9.39
2023-06-05T03:18:00,rvs,10.64
2023-06-05T03:19:00,rvs,11.33
2023-06-05T03:20:00,rvs,11.15
2023-06-05T03:21:00,rvs,10.30
2023-06-05T03:22:00,rvs,9.76
2023-06-05T03:23:00,rvs,9.44
2023-06-05T03:24:00,rvs,9.64
2023-06-05T03:25:00,rvs,9.37
2023-06-05T03:26:00,rvs,4.96
2023-06-05T03:27:00,rvs,4.84
2023-06-05T03:28:00,rvs,4.92
2023-06-05T03:29:00,rvs,5.29
2023-06-05T03:30:00,rvs,5.40
2023-06-05T03:31:00,rvs,4.94
2023-06-05T03:32:00,rvs,4.97
2023-06-05T03:33:00,rvs,9.56
2023-06-05T03:34:00,rvs,9.59
2023-06-05T03:35:00,rvs,9.59
2023-06-05T03:36:00,rvs,9.63
2023-06-05T03:37:00,rvs,9.56
2023-06-05T03:38:00,rvs,22.57
2023-06-05T03:39:00,rvs,22.38
2023-06-05T03:40:00,rvs,22.21
2023-06-05T03:41:00,rvs,9.66
2023-06-05T03:42:00,rvs,9.62
2023-06-05T03:43:00,rvs,9.16
2023-06-05T03:44:00,rvs,9.18
2023-06-05T03:45:00,rvs,9.12
2023-06-05T03:46:00,rvs,9.15
2023-06-05T03:47:00,rvs,9.04
2023-06-05T03:48:00,rvs,9.00
2023-06-05T03:49:00,rvs,12.26
2023-06-05T03:50:00,rvs,14.33
2023-06-05T03:51:00,rvs,19.45
2023-06-05T03:52:00,rvs,20.53
2023-06-05T03:53:00,rvs,19.71
2023-06-05T03:54:00,rvs,20.55
2023-06-05T03:55:00,rvs,21.44
2023-06-05T03:56:00,rvs,20.39
2023-06-05T03:57:00,rvs,18.93
2023-06-05T03:58:00,rvs,20.38
2023-06-05T03:59:00,rvs,20.78
2023-06-05T04:00:00,rvs,20.40
2023-06-05T04:01:00,rvs,19.91
2023-06-05T04:02:00,rvs,21.64
2023-06-05T04:03:00,rvs,22.02
2023-06-05T04:04:00,rvs,22.68
2023-06-05T04:05:00,rvs,9.07
2023-06-05T04:06:00,rvs,9.07
2023-06-05T04:07:00,rvs,9.06
2023-06-05T04:08:00,rvs,9.10
2023-06-05T04:09:00,rvs,9.05
2023-06-05T04:10:00,rvs,9.02
2023-06-05T04:11:00,rvs,8.99
2023-06-05T04:12:00,rvs,9.01
2023-06-05T04:13:00,rvs,9.04
2023-06-05T04:14:00,rvs,8.94
2023-06-05T04:15:00,rvs,8.96
2023-06-05T04:16:00,rvs,8.90
2023-06-05T04:17:00,rvs,9.25
2023-06-05T04:18:00,rvs,9.33
2023-06-05T04:19:00,rvs,9.38
2023-06-05T04:20:00,rvs,9.45
2023-06-05T04:21:00,rvs,9.45
2023-06-05T04:22:00,rvs,9.48
2023-06-05T04:23:00,rvs,9.47
2023-06-05T04:24:00,rvs,9.47
2023-06-05T04:25:00,rvs,9.42
2023-06-05T04:26:00,rvs,9.38
2023-06-05T04:27:00,rvs,9.45
2023-06-05T04:28:00,rvs,12.93
2023-06-05T04:29:00,rvs,14.68
2023-06-05T04:30:00,rvs,16.06
2023-06-05T04:31:00,rvs,16.19
2023-06-05T04:32:00,rvs,15.89
2023-06-05T04:33:00,rvs,15.42
2023-06-05T04:34:00,rvs,15.33
2023-06-05T04:35:00,rvs,14.97
2023-06-05T04:36:00,rvs,15.33
2023-06-05T04:37:00,rvs,14.37
2023-06-05T04:38:00,rvs,15.82
2023-06-05T04:39:00,rvs,11.05
2023-06-05T04:40:00,rvs,11.02
2023-06-05T04:41:00,rvs,11.04
2023-06-05T04:42:00,rvs,11.05
2023-06-05T04:43:00,rvs,11.04
2023-06-05T04:44:00,rvs,9.91
2023-06-05T04:45:00,rvs,9.95
2023-06-05T04:46:00,rvs,9.42
2023-06-05T04:47:00,rvs,9.39
2023-06-05T04:48:00,rvs,11.69
2023-06-05T04:49:00,rvs,13.49
2023-06-05T04:50:00,rvs,14.54
2023-06-05T04:51:00,rvs,15.58
2023-06-05T04:52:00,rvs,18.07
2023-06-05T04:53:00,rvs,17.17
2023-06-05T04:54:00,rvs,16.25
2023-06-05T04:55:00,rvs,16.13
2023-06-05T04:56:00,rvs,16.51
2023-06-05T04:57:00,rvs,16.36
2023-06-05T04:58:00,rvs,14.94
2023-06-05T04:59:00,rvs,15.95
2023-06-05T05:00:00,rvs,12.79
2023-06-05T05:01:00,rvs,14.24
2023-06-05T05:02:00,rvs,15.63
2023-06-05T05:03:00,rvs,34.52
2023-06-05T05:04:00,rvs,15.70
2023-06-05T05:05:00,rvs,14.98
2023-06-05T05:06:00,rvs,13.68
2023-06-05T05:07:00,rvs,14.70
2023-06-05T05:08:00,rvs,15.82
2023-06-05T05:09:00,rvs,9.80
2023-06-05T05:10:00,rvs,9.78
2023-06-05T05:11:00,rvs,10.49
2023-06-05T05:12:00,rvs,10.49
2023-06-05T05:13:00,rvs,9.81
2023-06-05T05:14:00,rvs,9.89
2023-06-05T05:15:00,rvs,9.85
2023-06-05T05:16:00,rvs,9.81
2023-06-05T05:17:00,rvs,9.80
2023-06-05T05:18:00,rvs,9.46
2023-06-05T05:19:00,rvs,9.43
2023-06-05T05:20:00,rvs,9.34
2023-06-05T05:21:00,rvs,11.84
2023-06-05T05:22:00,rvs,14.06
2023-06-05T05:23:00,rvs,15.46
2023-06-05T05:24:00,rvs,15.17
2023-06-05T05:25:00,rvs,15.28
2023-06-05T05:26:00,rvs,14.56
2023-06-05T05:27:00,rvs,14.78
2023-06-05T05:28:00,rvs,14.13
2023-06-05T05:29:00,rvs,13.83
2023-06-05T05:30:00,rvs,13.93
2023-06-05T05:31:00,rvs,14.17
2023-06-05T05:32:00,rvs,13.88
2023-06-05T05:33:00,rvs,9.17
2023-06-05T05:34:00,rvs,23.25
2023-06-05T05:35:00,rvs,9.52
2023-06-05T05:36:00,rvs,9.51
2023-06-05T05:37:00,rvs,9.68
2023-06-05T05:38:00,rvs,9.68
2023-06-05T05:39:00,rvs,9.61
2023-06-05T05:40:00,rvs,9.60
2023-06-05T05:41:00,rvs,9.65
2023-06-05T05:42:00,rvs,9.62
2023-06-05T05:43:00,rvs,9.61
2023-06-05T05:44:00,rvs,13.18
2023-06-05T05:45:00,rvs,14.22
2023-06-05T05:46:00,rvs,15.52
2023-06-05T05:47:00,rvs,14.57
2023-06-05T05:48:00,rvs,14.37
2023-06-05T05:49:00,rvs,13.72
2023-06-05T05:50:00,rvs,13.65
2023-06-05T05:51:00,rvs,13.64
2023-06-05T05:52:00,rvs,9.16
2023-06-05T05:53:00,rvs,9.13
2023-06-05T05:54:00,rvs,9.11
2023-06-05T05:55:00,rvs,9.11
2023-06-05T05:56:00,rvs,9.12
2023-06-05T05:57:00,rvs,9.04
2023-06-05T05:58:00,rvs,9.88
2023-06-05T05:59:00,rvs,14.63
2023-06-05T06:00:00,rvs,15.87
2023-06-05T06:01:00,rvs,15.05
2023-06-05T06:02:00,rvs,15.14
2023-06-05T06:03:00,rvs,15.00
2023-06-05T06:04:00,rvs,14.38
2023-06-05T06:05:00,rvs,14.31
2023-06-05T06:06:00,rvs,14.44
2023-06-05T06:07:00,rvs,15.30
2023-06-05T06:08:00,rvs,19.38
2023-06-05T06:09:00,rvs,15.11
2023-06-05T06:10:00,rvs,16.47
2023-06-05T06:11:00,rvs,16.75
2023-06-05T06:12:00,rvs,15.17
2023-06-05T06:13:00,rvs,14.60
2023-06-05T06:14:00,rvs,14.37
2023-06-05T06:15:00,rvs,17.98
2023-06-05T06:16:00,rvs,19.66
2023-06-05T06:17:00,rvs,14.93
2023-06-05T06:18:00,rvs,13.75
2023-06-05T06:19:00,rvs,14.52
2023-06-05T06:20:00,rvs,13.81
2023-06-05T06:21:00,rvs,13.40
2023-06-05T06:22:00,rvs,13.31
2023-06-05T06:23:00,rvs,13.38
2023-06-05T06:24:00,rvs,22.44
2023-06-05T06:25:00,rvs,17.55
2023-06-05T06:26:00,rvs,17.28
2023-06-05T06:27:00,rvs,17.15
2023-06-05T06:28:00,rvs,17.42
2023-06-05T06:29:00,rvs,4.99
2023-06-05T06:30:00,rvs,5.08
2023-06-05T06:31:00,rvs,4.55
2023-06-05T06:32:00,rvs,4.57
2023-06-05T06:33:00,rvs,4.54
2023-06-05T06:34:00,rvs,4.58
2023-06-05T06:35:00,rvs,4.44
2023-06-05T06:36:00,rvs,4.44
2023-06-05T06:37:00,rvs,4.42
2023-06-05T06:38:00,rvs,4.42
2023-06-05T06:39:00,rvs,4.69
2023-06-05T06:40:00,rvs,4.68
2023-06-05T06:41:00,rvs,4.71
2023-06-05T06:42:00,rvs,6.95
2023-06-05T06:43:00,rvs,16.00
2023-06-05T06:44:00,rvs,10.56
2023-06-05T06:45:00,rvs,17.56
2023-06-05T06:46:00,rvs,10.77
2023-06-05T06:47:00,rvs,16.41
2023-06-05T06:48:00,rvs,9.14
2023-06-05T06:49:00,rvs,9.94
2023-06-05T06:50:00,rvs,20.61
2023-06-05T06:51:00,rvs,15.05
2023-06-05T06:52:00,rvs,15.30
2023-06-05T06:53:00,rvs,21.65
2023-06-05T06:54:00,rvs,21.38
2023-06-05T06:55:00,rvs,14.26
2023-06-05T06:56:00,rvs,14.85
2023-06-05T06:57:00,rvs,18.12
2023-06-05T06:58:00,rvs,19.90
2023-06-05T06:59:00,rvs,20.30
2023-06-05T07:00:00,rvs,15.66
2023-06-05T07:01:00,rvs,14.83
2023-06-05T07:02:00,rvs,14.18
2023-06-05T07:03:00,rvs,13.94
2023-06-05T07:04:00,rvs,14.61
2023-06-05T07:05:00,rvs,14.35
2023-06-05T07:06:00,rvs,17.29
2023-06-05T07:07:00,rvs,21.38
2023-06-05T07:08:00,rvs,22.21
2023-06-05T07:09:00,rvs,14.93
2023-06-05T07:10:00,rvs,15.52
2023-06-05T07:11:00,rvs,15.71
2023-06-05T07:12:00,rvs,14.76
2023-06-05T07:13:00,rvs,21.48
2023-06-05T07:14:00,rvs,18.71
2023-06-05T07:15:00,rvs,19.81
2023-06-05T07:16:00,rvs,26.26
2023-06-05T07:17:00,rvs,23.66
2023-06-05T07:18:00,rvs,14.47
2023-06-05T07:19:00,rvs,14.23
2023-06-05T07:20:00,rvs,13.79
2023-06-05T07:21:00,rvs,20.71
2023-06-05T07:22:00,rvs,13.92
2023-06-05T07:23:00,rvs,13.82
2023-06-05T07:24:00,rvs,20.91
2023-06-05T07:25:00,rvs,14.19
2023-06-05T07:26:00,rvs,14.22
2023-06-05T07:27:00,rvs,13.72
2023-06-05T07:28:00,rvs,20.59
2023-06-05T07:29:00,rvs,13.92
2023-06-05T07:30:00,rvs,14.13
2023-06-05T07:31:00,rvs,14.05
2023-06-05T07:32:00,rvs,14.55
2023-06-05T07:33:00,rvs,14.77
2023-06-05T07:34:00,rvs,16.37
2023-06-05T07:35:00,rvs,9.72
2023-06-05T07:36:00,rvs,15.77
2023-06-05T07:37:00,rvs,15.68
2023-06-05T07:38:00,rvs,16.91
2023-06-05T07:39:00,rvs,16.61
2023-06-05T07:40:00,rvs,16.47
2023-06-05T07:41:00,rvs,16.04
2023-06-05T07:42:00,rvs,19.61
2023-06-05T07:43:00,rvs,20.64
2023-06-05T07:44:00,rvs,20.36
2023-06-05T07:45:00,rvs,20.71
2023-06-05T07:46:00,rvs,20.76
2023-06-05T07:47:00,rvs,15.55
2023-06-05T07:48:00,rvs,12.18
2023-06-05T07:49:00,rvs,15.01
2023-06-05T07:50:00,rvs,23.13
2023-06-05T07:51:00,rvs,11.08
2023-06-05T07:52:00,rvs,10.70
2023-06-05T07:53:00,rvs,4.33
2023-06-05T07:54:00,rvs,4.30
2023-06-05T07:55:00,rvs,4.29
2023-06-05T07:56:00,rvs,4.26
2023-06-05T07:57:00,rvs,7.75
2023-06-05T07:58:00,rvs,15.50
2023-06-05T07:59:00,rvs,16.69
2023-06-05T08:00:00,rvs,11.64
2023-06-05T08:01:00,rvs,17.16
2023-06-05T08:02:00,rvs,21.77
2023-06-05T08:03:00,rvs,21.74
2023-06-05T08:04:00,rvs,21.18
2023-06-05T08:05:00,rvs,21.10
2023-06-05T08:06:00,rvs,14.49
2023-06-05T08:07:00,rvs,14.74
2023-06-05T08:08:00,rvs,14.72
2023-06-05T08:09:00,rvs,15.47
2023-06-05T08:10:00,rvs,5.82
2023-06-05T08:11:00,rvs,24.24
2023-06-05T08:12:00,rvs,5.54
2023-06-05T08:13:00,rvs,5.55
2023-06-05T08:14:00,rvs,13.43
2023-06-05T08:15:00,rvs,14.60
2023-06-05T08:16:00,rvs,11.57
2023-06-05T08:17:00,rvs,20.94
2023-06-05T08:18:00,rvs,20.26
2023-06-05T08:19:00,rvs,20.81
2023-06-05T08:20:00,rvs,22.57
2023-06-05T08:21:00,rvs,21.60
2023-06-05T08:22:00,rvs,20.37
2023-06-05T08:23:00,rvs,19.76
2023-06-05T08:24:00,rvs,23.22
2023-06-05T08:25:00,rvs,26.96
2023-06-05T08:26:00,rvs,22.40
2023-06-05T08:27:00,rvs,23.13
2023-06-05T08:28:00,rvs,11.39
2023-06-05T08:29:00,rvs,4.88
2023-06-05T08:30:00,rvs,4.85
2023-06-05T08:31:00,rvs,4.88
2023-06-05T08:32:00,rvs,4.86
2023-06-05T08:33:00,rvs,9.45
2023-06-05T08:34:00,rvs,10.37
2023-06-05T08:35:00,rvs,12.45
2023-06-05T08:36:00,rvs,14.89
2023-06-05T08:37:00,rvs,15.45
2023-06-05T08:38:00,rvs,14.46
2023-06-05T08:39:00,rvs,17.53
2023-06-05T08:40:00,rvs,18.11
2023-06-05T08:41:00,rvs,18.62
2023-06-05T08:42:00,rvs,21.47
2023-06-05T08:43:00,rvs,17.11
2023-06-05T08:44:00,rvs,16.37
2023-06-05T08:45:00,rvs,11.47
2023-06-05T08:46:00,rvs,11.53
2023-06-05T08:47:00,rvs,4.77
2023-06-05T08:48:00,rvs,4.75
2023-06-05T08:49:00,rvs,9.13
2023-06-05T08:50:00,rvs,10.22
2023-06-05T08:51:00,rvs,9.28
2023-06-05T08:52:00,rvs,9.29
2023-06-05T08:53:00,rvs,13.31
2023-06-05T08:54:00,rvs,14.24
2023-06-05T08:55:00,rvs,15.16
2023-06-05T08:56:00,rvs,17.15
2023-06-05T08:57:00,rvs,16.29
2023-06-05T08:58:00,rvs,15.28
2023-06-05T08:59:00,rvs,14.76
2023-06-05T09:00:00,rvs,9.72
2023-06-05T09:01:00,rvs,9.43
2023-06-05T09:02:00,rvs,8.90
2023-06-05T09:03:00,rvs,4.55
2023-06-05T09:04:00,rvs,4.52
2023-06-05T09:05:00,rvs,4.60
2023-06-05T09:06:00,rvs,5.83
2023-06-05T09:07:00,rvs,10.15
2023-06-05T09:08:00,rvs,10.09
2023-06-05T09:09:00,rvs,10.06
2023-06-05T09:10:00,rvs,9.93
2023-06-05T09:11:00,rvs,13.73
2023-06-05T09:12:00,rvs,23.02
2023-06-05T09:13:00,rvs,23.61
2023-06-05T09:14:00,rvs,24.28
2023-06-05T09:15:00,rvs,23.71
2023-06-05T09:16:00,rvs,24.18
2023-06-05T09:17:00,rvs,24.51
2023-06-05T09:18:00,rvs,24.84
2023-06-05T09:19:00,rvs,26.23
2023-06-05T09:20:00,rvs,27.14
2023-06-05T09:21:00,rvs,26.58
2023-06-05T09:22:00,rvs,23.79
2023-06-05T09:23:00,rvs,5.46
2023-06-05T09:24:00,rvs,5.40
2023-06-05T09:25:00,rvs,5.66
2023-06-05T09:26:00,rvs,5.29
2023-06-05T09:27:00,rvs,5.57
2023-06-05T09:28:00,rvs,19.27
2023-06-05T09:29:00,rvs,18.90
2023-06-05T09:30:00,rvs,18.64
2023-06-05T09:31:00,rvs,18.51
2023-06-05T09:32:00,rvs,18.63
2023-06-05T09:33:00,rvs,10.05
2023-06-05T09:34:00,rvs,11.03
2023-06-05T09:35:00,rvs,11.41
2023-06-05T09:36:00,rvs,10.16
2023-06-05T09:37:00,rvs,10.80
2023-06-05T09:38:00,rvs,9.94
2023-06-05T09:39:00,rvs,9.35
2023-06-05T09:40:00,rvs,10.88
2023-06-05T09:41:00,rvs,15.35
2023-06-05T09:42:00,rvs,14.89
2023-06-05T09:43:00,rvs,9.48
2023-06-05T09:44:00,rvs,9.46
2023-06-05T09:45:00,rvs,5.01
2023-06-05T09:46:00,rvs,5.02
2023-06-05T09:47:00,rvs,4.86
2023-06-05T09:48:00,rvs,4.97
2023-06-05T09:49:00,rvs,8.93
2023-06-05T09:50:00,rvs,14.27
2023-06-05T09:51:00,rvs,14.51
2023-06-05T09:52:00,rvs,13.32
2023-06-05T09:53:00,rvs,13.74
2023-06-05T09:54:00,rvs,14.35
2023-06-05T09:55:00,rvs,14.29
2023-06-05T09:56:00,rvs,15.68
2023-06-05T09:57:00,rvs,15.84
2023-06-05T09:58:00,rvs,16.04
2023-06-05T09:59:00,rvs,15.93
2023-06-05T10:00:00,rvs,10.30
2023-06-05T10:01:00,rvs,4.86
2023-06-05T10:02:00,rvs,5.03
2023-06-05T10:03:00,rvs,4.74
2023-06-05T10:04:00,rvs,5.20
2023-06-05T10:05:00,rvs,8.84
2023-06-05T10:06:00,rvs,11.13
2023-06-05T10:07:00,rvs,19.58
2023-06-05T10:08:00,rvs,20.50
2023-06-05T10:09:00,rvs,18.57
2023-06-05T10:10:00,rvs,19.84
2023-06-05T10:11:00,rvs,20.74
2023-06-05T10:12:00,rvs,19.39
2023-06-05T10:13:00,rvs,15.23
2023-06-05T10:14:00,rvs,16.84
2023-06-05T10:15:00,rvs,16.82
2023-06-05T10:16:00,rvs,16.57
2023-06-05T10:17:00,rvs,5.77
2023-06-05T10:18:00,rvs,5.71
2023-06-05T10:19:00,rvs,5.66
2023-06-05T10:20:00,rvs,5.68
2023-06-05T10:21:00,rvs,5.73
2023-06-05T10:22:00,rvs,5.72
2023-06-05T10:23:00,rvs,8.97
2023-06-05T10:24:00,rvs,11.49
2023-06-05T10:25:00,rvs,10.97
2023-06-05T10:26:00,rvs,10.06
2023-06-05T10:27:00,rvs,11.51
2023-06-05T10:28:00,rvs,14.22
2023-06-05T10:29:00,rvs,15.47
2023-06-05T10:30:00,rvs,9.51
2023-06-05T10:31:00,rvs,9.49
2023-06-05T10:32:00,rvs,9.81
2023-06-05T10:33:00,rvs,10.48
2023-06-05T10:34:00,rvs,10.33
2023-06-05T10:35:00,rvs,11.38
2023-06-05T10:36:00,rvs,11.39
2023-06-05T10:37:00,rvs,10.98
2023-06-05T10:38:00,rvs,5.85
2023-06-05T10:39:00,rvs,9.22
2023-06-05T10:40:00,rvs,10.53
2023-06-05T10:41:00,rvs,10.61
2023-06-05T10:42:00,rvs,10.43
2023-06-05T10:43:00,rvs,9.50
2023-06-05T10:44:00,rvs,14.89
2023-06-05T10:45:00,rvs,16.04
2023-06-05T10:46:00,rvs,14.44
2023-06-05T10:47:00,rvs,18.92
2023-06-05T10:48:00,rvs,13.97
2023-06-05T10:49:00,rvs,14.26
2023-06-05T10:50:00,rvs,14.15
2023-06-05T10:51:00,rvs,15.00
2023-06-05T10:52:00,rvs,10.71
2023-06-05T10:53:00,rvs,10.48
2023-06-05T10:54:00,rvs,5.41
2023-06-05T10:55:00,rvs,5.25
2023-06-05T10:56:00,rvs,5.21
2023-06-05T10:57:00,rvs,5.12
2023-06-05T10:58:00,rvs,5.12
2023-06-05T10:59:00,rvs,5.08
2023-06-05T11:00:00,rvs,9.44
2023-06-05T11:01:00,rvs,10.94
2023-06-05T11:02:00,rvs,9.68
2023-06-05T11:03:00,rvs,9.43
2023-06-05T11:04:00,rvs,9.76
2023-06-05T11:05:00,rvs,9.84
2023-06-05T11:06:00,rvs,9.73
2023-06-05T11:07:00,rvs,10.35
2023-06-05T11:08:00,rvs,10.95
2023-06-05T11:09:00,rvs,11.24
2023-06-05T11:10:00,rvs,5.31
2023-06-05T11:11:00,rvs,5.24
2023-06-05T11:12:00,rvs,5.22
2023-06-05T11:13:00,rvs,5.27
2023-06-05T11:14:00,rvs,5.33
2023-06-05T11:15:00,rvs,5.29
2023-06-05T11:16:00,rvs,5.29
2023-06-05T11:17:00,rvs,5.41
2023-06-05T11:18:00,rvs,5.34
2023-06-05T11:19:00,rvs,5.32
2023-06-05T11:20:00,rvs,8.50
2023-06-05T11:21:00,rvs,10.34
2023-06-05T11:22:00,rvs,9.94
2023-06-05T11:23:00,rvs,10.11
2023-06-05T11:24:00,rvs,10.23
2023-06-05T11:25:00,rvs,30.19
2023-06-05T11:26:00,rvs,8.97
2023-06-05T11:27:00,rvs,10.48
2023-06-05T11:28:00,rvs,11.16
2023-06-05T11:29:00,rvs,24.79
2023-06-05T11:30:00,rvs,21.66
2023-06-05T11:31:00,rvs,6.60
2023-06-05T11:32:00,rvs,6.03
2023-06-05T11:33:00,rvs,5.92
2023-06-05T11:34:00,rvs,18.47
2023-06-05T11:35:00,rvs,5.87
2023-06-05T11:36:00,rvs,14.21
2023-06-05T11:37:00,rvs,15.95
2023-06-05T11:38:00,rvs,15.56
2023-06-05T11:39:00,rvs,15.35
2023-06-05T11:40:00,rvs,15.63
2023-06-05T11:41:00,rvs,16.52
2023-06-05T11:42:00,rvs,15.93
2023-06-05T11:43:00,rvs,16.16
2023-06-05T11:44:00,rvs,15.80
2023-06-05T11:45:00,rvs,15.94
2023-06-05T11:46:00,rvs,5.12
2023-06-05T11:47:00,rvs,5.21
2023-06-05T11:48:00,rvs,5.08
2023-06-05T11:49:00,rvs,5.07
2023-06-05T11:50:00,rvs,5.12
2023-06-05T11:51:00,rvs,20.73
2023-06-05T11:52:00,rvs,5.22
2023-06-05T11:53:00,rvs,5.31
2023-06-05T11:54:00,rvs,5.30
2023-06-05T11:55:00,rvs,5.21
2023-06-05T11:56:00,rvs,10.02
2023-06-05T11:57:00,rvs,9.91
2023-06-05T11:58:00,rvs,9.88
2023-06-05T11:59:00,rvs,9.79
2023-06-05T12:00:00,rvs,9.77
2023-06-05T12:01:00,rvs,9.76
2023-06-05T12:02:00,rvs,9.76
2023-06-05T12:03:00,rvs,9.87
2023-06-05T12:04:00,rvs,9.90
2023-06-05T12:05:00,rvs,10.00
2023-06-05T12:06:00,rvs,10.48
2023-06-05T12:07:00,rvs,10.47
2023-06-05T12:08:00,rvs,10.49
2023-06-05T12:09:00,rvs,9.72
2023-06-05T12:10:00,rvs,9.93
2023-06-05T12:11:00,rvs,9.80
2023-06-05T12:12:00,rvs,9.91
2023-06-05T12:13:00,rvs,9.97
2023-06-05T12:14:00,rvs,10.02
2023-06-05T12:15:00,rvs,10.40
2023-06-05T12:16:00,rvs,10.33
2023-06-05T12:17:00,rvs,13.62
2023-06-05T12:18:00,rvs,15.04
2023-06-05T12:19:00,rvs,14.93
2023-06-05T12:20:00,rvs,14.61
2023-06-05T12:21:00,rvs,13.21
2023-06-05T12:22:00,rvs,14.02
2023-06-05T12:23:00,rvs,14.36
2023-06-05T12:24:00,rvs,14.77
2023-06-05T12:25:00,rvs,14.66
2023-06-05T12:26:00,rvs,14.50
2023-06-05T12:27:00,rvs,9.42
2023-06-05T12:28:00,rvs,9.45
2023-06-05T12:29:00,rvs,9.43
2023-06-05T12:30:00,rvs,9.47
2023-06-05T12:31:00,rvs,9.58
2023-06-05T12:32:00,rvs,9.65
2023-06-05T12:33:00,rvs,9.54
2023-06-05T12:34:00,rvs,9.62
2023-06-05T12:35:00,rvs,9.62
2023-06-05T12:36:00,rvs,9.51
2023-06-05T12:37:00,rvs,9.50
2023-06-05T12:38:00,rvs,9.49
2023-06-05T12:39:00,rvs,9.59
2023-06-05T12:40:00,rvs,9.56
2023-06-05T12:41:00,rvs,9.46
2023-06-05T12:42:00,rvs,9.52
2023-06-05T12:43:00,rvs,9.46
2023-06-05T12:44:00,rvs,9.49
2023-06-05T12:45:00,rvs,9.46
2023-06-05T12:46:00,rvs,9.50
2023-06-05T12:47:00,rvs,10.03
2023-06-05T12:48:00,rvs,10.05
2023-06-05T12:49:00,rvs,10.07
2023-06-05T12:50:00,rvs,9.42
2023-06-05T12:51:00,rvs,9.88
2023-06-05T12:52:00,rvs,9.87
2023-06-05T12:53:00,rvs,9.78
2023-06-05T12:54:00,rvs,9.76
2023-06-05T12:55:00,rvs,9.72
2023-06-05T12:56:00,rvs,9.58
2023-06-05T12:57:00,rvs,9.51
2023-06-05T12:58:00,rvs,9.45
2023-06-05T12:59:00,rvs,9.42
2023-06-05T13:00:00,rvs,9.30
2023-06-05T13:01:00,rvs,9.26
2023-06-05T13:02:00,rvs,11.85
2023-06-05T13:03:00,rvs,13.73
2023-06-05T13:04:00,rvs,14.46
2023-06-05T13:05:00,rvs,14.87
2023-06-05T13:06:00,rvs,14.47
2023-06-05T13:07:00,rvs,13.26
2023-06-05T13:08:00,rvs,14.63
2023-06-05T13:09:00,rvs,14.62
2023-06-05T13:10:00,rvs,14.95
2023-06-05T13:11:00,rvs,9.25
2023-06-05T13:12:00,rvs,8.79
2023-06-05T13:13:00,rvs,8.80
2023-06-05T13:14:00,rvs,8.81
2023-06-05T13:15:00,rvs,4.46
2023-06-05T13:16:00,rvs,4.90
2023-06-05T13:17:00,rvs,4.94
2023-06-05T13:18:00,rvs,4.91
2023-06-05T13:19:00,rvs,4.93
2023-06-05T13:20:00,rvs,4.96
2023-06-05T13:21:00,rvs,4.94
2023-06-05T13:22:00,rvs,5.36
2023-06-05T13:23:00,rvs,5.20
2023-06-05T13:24:00,rvs,5.89
2023-06-05T13:25:00,rvs,5.47
2023-06-05T13:26:00,rvs,5.26
2023-06-05T13:27:00,rvs,5.15
2023-06-05T13:28:00,rvs,5.20
2023-06-05T13:29:00,rvs,4.63
2023-06-05T13:30:00,rvs,4.70
2023-06-05T13:31:00,rvs,4.72